This demonstration page uses our WeatherBlox Daily Observations layout. Learn more.

Left ArrowRight Arrow

36.17497, -115.13722

Hourly Observations for January 26, 2017

Temp ( °F °C ) Dew Point ( °F °C ) Humidity (%) Winds ( mph kmh ) Pressure ( in mb ) Visibility ( mi km ) Precip ( " mm )
12:53 am 00:53 Mostly Clear 37 2.8 19 -7.2 48 48 WNW 7 11 30.37 1028 10 16.0934 0 0
1:53 am 01:53 Clear 36 2.2 20 -6.7 52 52 WNW 7 11 30.38 1029 10 16.0934 0 0
2:53 am 02:53 Clear 37 2.8 17 -8.3 44 44 NNW 8 13 30.38 1029 10 16.0934 0 0
3:53 am 03:53 Clear 36 2.2 18 -7.8 48 48 N 5 7 30.39 1029 10 16.0934 0 0
4:53 am 04:53 Clear 37 2.8 17 -8.3 44 44 NNW 9 15 30.4 1030 10 16.0934 0 0
5:53 am 05:53 Clear 34 1.1 18 -7.8 52 52 W 6 9 30.42 1030 10 16.0934 0 0
6:53 am 06:53 Sunny 33 0.6 19 -7.2 56 56 WNW 6 9 30.45 1031 10 16.0934 0 0
7:53 am 07:53 Sunny 37 2.8 19 -7.2 48 48 NNE 3 6 30.45 1031 10 16.0934 0 0
8:53 am 08:53 Sunny 40 4.4 18 -7.8 41 41 NE 6 9 30.47 1032 10 16.0934 0 0
9:53 am 09:53 Sunny 42 5.6 18 -7.8 38 38 E 7 11 30.48 1032 10 16.0934 0 0
10:53 am 10:53 Sunny 44 6.7 16 -8.9 32 32 ESE 7 11 30.47 1032 10 16.0934 0 0
11:53 am 11:53 Sunny 45 7.2 16 -8.9 31 31 SE 3 6 30.45 1031 10 16.0934 0 0
12:53 pm 12:53 Sunny 47 8.3 12 -11.1 24 24 Calm 30.42 1030 10 16.0934 0 0
1:53 pm 13:53 Sunny 47 8.3 13 -10.6 25 25 ESE 5 7 30.41 1030 10 16.0934 0 0
2:53 pm 14:53 Sunny 49 9.4 16 -8.9 27 27 ENE 7 11 30.41 1030 10 16.0934 0 0
3:53 pm 15:53 Sunny 48 8.9 16 -8.9 28 28 SE 8 13 30.41 1030 10 16.0934 0 0
4:53 pm 16:53 Sunny 46 7.8 18 -7.8 32 32 E 8 13 30.41 1030 10 16.0934 0 0
5:53 pm 17:53 Mostly Cloudy 46 7.8 17 -8.3 31 31 Calm 30.42 1030 10 16.0934 0 0
6:53 pm 18:53 Clear 44 6.7 19 -7.2 37 37 W 5 7 30.44 1031 10 16.0934 0 0
7:53 pm 19:53 Mostly Clear 43 6.1 20 -6.7 40 40 Calm 30.47 1032 10 16.0934 0 0
8:53 pm 20:53 Clear 42 5.6 20 -6.7 41 41 NE 5 7 30.49 1032 10 16.0934 0 0
9:53 pm 21:53 Clear 38 3.3 22 -5.6 52 52 NW 7 11 30.51 1033 10 16.0934 0 0
10:53 pm 22:53 Clear 40 4.4 19 -7.2 43 43 NNW 9 15 30.52 1033 10 16.0934 0 0
11:53 pm 23:53 Clear 39 3.9 19 -7.2 45 45 N 5 7 30.53 1034 10 16.0934 0 0

Powered by AerisWeather